Location: Newark
(48.2308°N, 120.8549°W)
Time: 00:49:55
(UTC+00:00)

Transit 2A Rocket - Pass Details

Date: 29 May 2020
Orbit: 584 x 919 km, 66.7° (Epoch: 13 July)

Event Time Altitude Azimuth Distance (km) Brightness Sun altitude
Rises 06:52:38 0° 206° (SSW) 3,049 - -18.4°
Reaches altitude 10° 06:54:51 10° 205° (SSW) 2,186 - -18.5°
Exits shadow 06:57:17 30° 199° (SSW) 1,310 5.8 -18.6°
Maximum altitude 06:59:50 73° 121° (ESE) 805 4.9 -18.7°
Drops below altitude 10° 07:05:23 10° 38° (NE) 2,427 8.1 -19.0°
Sets 07:07:58 0° 37° (NE) 3,414 9.0 -19.1°
